Time,TemperatureF,DewpointF,PressureIn,WindDirection,WindDirectionDegrees,WindSpeedMPH,WindSpeedGustMPH,Humidity,HourlyPrecipIn,Conditions,Clouds,dailyrainin,SoftwareType,DateUTC
2015-09-04 00:00:00,70.5,67.4,29.87,ESE,113,0.0,0.0,90,0.00,,CLR,0.00,VWS V15.00,2015-09-04 04:00:00,
2015-09-04 00:01:00,70.5,67.4,29.87,ESE,113,0.0,0.0,90,0.00,,CLR,0.00,VWS V15.00,2015-09-04 04:01:00,
2015-09-04 00:02:00,70.4,67.7,29.87,ESE,113,0.0,0.0,91,0.00,,CLR,0.00,VWS V15.00,2015-09-04 04:02:00,
2015-09-04 00:03:00,70.4,67.7,29.87,ESE,113,0.0,0.0,91,0.00,,CLR,0.00,VWS V15.00,2015-09-04 04:03:00,
2015-09-04 00:04:00,70.4,67.7,29.87,ESE,113,0.0,0.0,91,0.00,,CLR,0.00,VWS V15.00,2015-09-04 04:04:00,
2015-09-04 00:05:00,70.5,67.8,29.87,ESE,113,0.0,0.0,91,0.00,,CLR,0.00,VWS V15.00,2015-09-04 04:05:00,
2015-09-04 00:06:00,70.5,67.8,29.87,ESE,113,0.0,0.0,91,0.00,,CLR,0.00,VWS V15.00,2015-09-04 04:06:00,
2015-09-04 00:07:00,70.5,67.8,29.87,ESE,113,0.0,0.0,91,0.00,,CLR,0.00,VWS V15.00,2015-09-04 04:07:00,
2015-09-04 00:08:00,70.5,67.8,29.87,ESE,113,0.0,0.0,91,0.00,,CLR,0.00,VWS V15.00,2015-09-04 04:08:00,
2015-09-04 00:09:00,70.5,67.8,29.87,ESE,113,0.0,0.0,91,0.00,,CLR,0.00,VWS V15.00,2015-09-04 04:09:00,
2015-09-04 00:10:00,70.5,67.8,29.87,ESE,113,0.0,0.0,91,0.00,,CLR,0.00,VWS V15.00,2015-09-04 04:10:00,
2015-09-04 00:11:00,70.5,67.4,29.87,ESE,113,0.0,0.0,90,0.00,,CLR,0.00,VWS V15.00,2015-09-04 04:11:00,
2015-09-04 00:12:00,70.5,67.4,29.87,ESE,113,0.0,0.0,90,0.00,,CLR,0.00,VWS V15.00,2015-09-04 04:12:00,
2015-09-04 00:13:00,70.5,67.4,29.87,ESE,113,0.0,0.0,90,0.00,,CLR,0.00,VWS V15.00,2015-09-04 04:13:00,
2015-09-04 00:14:00,70.5,67.4,29.87,ESE,113,0.0,0.0,90,0.00,,CLR,0.00,VWS V15.00,2015-09-04 04:14:00,
2015-09-04 00:15:00,70.5,67.4,29.87,ESE,113,0.0,0.0,90,0.00,,CLR,0.00,VWS V15.00,2015-09-04 04:15:00,
2015-09-04 00:16:00,70.5,67.4,29.87,ESE,113,0.0,0.0,90,0.00,,CLR,0.00,VWS V15.00,2015-09-04 04:16:00,
2015-09-04 00:17:00,70.4,67.3,29.87,ESE,113,0.0,0.0,90,0.00,,CLR,0.00,VWS V15.00,2015-09-04 04:17:00,
2015-09-04 00:18:00,70.4,67.3,29.87,ESE,113,0.0,0.0,90,0.00,,CLR,0.00,VWS V15.00,2015-09-04 04:18:00,
2015-09-04 00:19:00,70.3,67.2,29.87,ESE,113,0.0,0.0,90,0.00,,CLR,0.00,VWS V15.00,2015-09-04 04:19:00,
2015-09-04 00:20:00,70.3,67.2,29.87,ESE,113,0.0,0.0,90,0.00,,CLR,0.00,VWS V15.00,2015-09-04 04:20:00,
2015-09-04 00:21:00,70.2,67.4,29.87,ESE,113,0.0,0.0,91,0.00,,CLR,0.00,VWS V15.00,2015-09-04 04:21:00,
2015-09-04 00:22:00,70.1,67.4,29.87,ESE,113,0.0,0.0,91,0.00,,CLR,0.00,VWS V15.00,2015-09-04 04:22:00,
2015-09-04 00:23:00,70.0,67.3,29.87,ESE,113,0.0,0.0,91,0.00,,CLR,0.00,VWS V15.00,2015-09-04 04:23:00,
2015-09-04 00:24:00,70.0,67.3,29.87,ESE,113,0.0,0.0,91,0.00,,CLR,0.00,VWS V15.00,2015-09-04 04:24:00,
2015-09-04 00:25:00,69.9,67.2,29.87,ESE,113,0.0,0.0,91,0.00,,CLR,0.00,VWS V15.00,2015-09-04 04:25:00,
2015-09-04 00:26:00,69.9,67.2,29.87,ESE,113,0.0,0.0,91,0.00,,CLR,0.00,VWS V15.00,2015-09-04 04:26:00,
2015-09-04 00:27:00,69.9,67.2,29.87,ESE,113,0.0,0.0,91,0.00,,CLR,0.00,VWS V15.00,2015-09-04 04:27:00,
2015-09-04 00:28:00,69.9,67.2,29.87,ESE,113,0.0,0.0,91,0.00,,CLR,0.00,VWS V15.00,2015-09-04 04:28:00,
2015-09-04 00:29:00,69.9,67.2,29.87,ESE,113,0.0,0.0,91,0.00,,CLR,0.00,VWS V15.00,2015-09-04 04:29:00,
2015-09-04 00:30:00,69.9,67.5,29.87,ESE,113,0.0,0.0,92,0.00,,CLR,0.00,VWS V15.00,2015-09-04 04:30:00,
2015-09-04 00:31:00,70.0,67.3,29.87,ESE,113,0.0,0.0,91,0.00,,CLR,0.00,VWS V15.00,2015-09-04 04:31:00,
2015-09-04 00:32:00,70.0,67.3,29.88,ESE,113,0.0,0.0,91,0.00,,CLR,0.00,VWS V15.00,2015-09-04 04:32:00,
2015-09-04 00:33:00,70.1,67.4,29.88,ESE,113,0.0,0.0,91,0.00,,CLR,0.00,VWS V15.00,2015-09-04 04:33:00,
2015-09-04 00:34:00,70.1,67.4,29.88,ESE,113,0.0,0.0,91,0.00,,CLR,0.00,VWS V15.00,2015-09-04 04:34:00,
2015-09-04 00:35:00,70.1,67.4,29.88,ESE,113,0.0,0.0,91,0.00,,CLR,0.00,VWS V15.00,2015-09-04 04:35:00,
2015-09-04 00:36:00,70.2,67.4,29.87,ESE,113,0.0,0.0,91,0.00,,CLR,0.00,VWS V15.00,2015-09-04 04:36:00,
2015-09-04 00:37:00,70.2,67.4,29.88,ESE,113,0.0,0.0,91,0.00,,CLR,0.00,VWS V15.00,2015-09-04 04:37:00,
2015-09-04 00:38:00,70.3,67.6,29.87,ESE,113,0.0,0.0,91,0.00,,CLR,0.00,VWS V15.00,2015-09-04 04:38:00,
2015-09-04 00:39:00,70.3,67.6,29.87,ESE,113,0.0,0.0,91,0.00,,CLR,0.00,VWS V15.00,2015-09-04 04:39:00,
2015-09-04 00:40:00,70.3,67.6,29.87,ESE,113,0.0,0.0,91,0.00,,CLR,0.00,VWS V15.00,2015-09-04 04:40:00,
2015-09-04 00:41:00,70.2,67.4,29.87,ESE,113,0.0,0.0,91,0.00,,CLR,0.00,VWS V15.00,2015-09-04 04:41:00,
2015-09-04 00:42:00,70.2,67.4,29.87,SE,125,0.0,0.0,91,0.00,,CLR,0.00,VWS V15.00,2015-09-04 04:42:00,
2015-09-04 00:43:00,70.1,67.4,29.87,SE,126,0.0,0.0,91,0.00,,CLR,0.00,VWS V15.00,2015-09-04 04:43:00,
2015-09-04 00:44:00,70.0,67.3,29.87,SE,124,0.0,0.0,91,0.00,,CLR,0.00,VWS V15.00,2015-09-04 04:44:00,
2015-09-04 00:45:00,69.9,67.2,29.87,SE,124,0.0,0.0,91,0.00,,CLR,0.00,VWS V15.00,2015-09-04 04:45:00,
2015-09-04 00:46:00,69.8,67.1,29.87,SE,124,0.0,0.0,91,0.00,,CLR,0.00,VWS V15.00,2015-09-04 04:46:00,
2015-09-04 00:47:00,69.7,67.0,29.87,SE,124,0.0,0.0,91,0.00,,CLR,0.00,VWS V15.00,2015-09-04 04:47:00,
2015-09-04 00:48:00,69.6,66.9,29.87,SE,124,0.0,0.0,91,0.00,,CLR,0.00,VWS V15.00,2015-09-04 04:48:00,
2015-09-04 00:49:00,69.5,66.8,29.87,SE,124,0.0,0.0,91,0.00,,CLR,0.00,VWS V15.00,2015-09-04 04:49:00,
2015-09-04 00:50:00,69.4,66.7,29.87,SE,124,0.0,0.0,91,0.00,,CLR,0.00,VWS V15.00,2015-09-04 04:50:00,
2015-09-04 00:51:00,69.4,67.0,29.87,SE,124,0.0,0.0,92,0.00,,CLR,0.00,VWS V15.00,2015-09-04 04:51:00,
2015-09-04 00:52:00,69.3,66.9,29.87,SE,124,0.0,0.0,92,0.00,,CLR,0.00,VWS V15.00,2015-09-04 04:52:00,
2015-09-04 00:53:00,69.4,67.0,29.87,SE,124,0.0,0.0,92,0.00,,CLR,0.00,VWS V15.00,2015-09-04 04:53:00,
2015-09-04 00:54:00,69.4,67.3,29.87,ESE,106,0.0,0.0,93,0.00,,CLR,0.00,VWS V15.00,2015-09-04 04:54:00,
2015-09-04 00:55:00,69.4,67.3,29.87,ESE,105,0.0,0.0,93,0.00,,CLR,0.00,VWS V15.00,2015-09-04 04:55:00,
2015-09-04 00:56:00,69.4,67.3,29.87,ESE,108,0.0,0.0,93,0.00,,CLR,0.00,VWS V15.00,2015-09-04 04:56:00,
2015-09-04 00:57:00,69.5,67.4,29.87,ESE,108,0.0,0.0,93,0.00,,CLR,0.00,VWS V15.00,2015-09-04 04:57:00,
2015-09-04 00:58:00,69.5,67.4,29.87,ESE,108,0.0,0.0,93,0.00,,CLR,0.00,VWS V15.00,2015-09-04 04:58:00,
2015-09-04 00:59:00,69.5,67.4,29.87,ESE,113,0.0,0.0,93,0.00,,CLR,0.00,VWS V15.00,2015-09-04 04:59:00,
2015-09-04 01:00:00,69.5,67.4,29.87,ESE,113,0.0,0.0,93,0.00,,CLR,0.00,VWS V15.00,2015-09-04 05:00:00,
2015-09-04 01:01:00,69.5,67.4,29.87,ESE,113,0.0,0.0,93,0.00,,CLR,0.00,VWS V15.00,2015-09-04 05:01:00,
2015-09-04 01:02:00,69.5,67.4,29.87,ESE,113,0.0,0.0,93,0.00,,CLR,0.00,VWS V15.00,2015-09-04 05:02:00,
2015-09-04 01:03:00,69.5,67.4,29.88,ESE,113,0.0,0.0,93,0.00,,CLR,0.00,VWS V15.00,2015-09-04 05:03:00,
2015-09-04 01:04:00,69.5,67.4,29.87,ESE,113,0.0,0.0,93,0.00,,CLR,0.00,VWS V15.00,2015-09-04 05:04:00,
2015-09-04 01:05:00,69.5,67.4,29.88,ESE,113,0.0,0.0,93,0.00,,CLR,0.00,VWS V15.00,2015-09-04 05:05:00,
2015-09-04 01:06:00,69.6,67.5,29.88,ESE,113,0.0,0.0,93,0.00,,CLR,0.00,VWS V15.00,2015-09-04 05:06:00,
2015-09-04 01:07:00,69.6,67.5,29.88,ESE,113,0.0,0.0,93,0.00,,CLR,0.00,VWS V15.00,2015-09-04 05:07:00,
2015-09-04 01:08:00,69.6,67.5,29.88,ESE,113,0.0,0.0,93,0.00,,CLR,0.00,VWS V15.00,2015-09-04 05:08:00,
2015-09-04 01:09:00,69.7,67.6,29.88,ESE,113,0.0,0.0,93,0.00,,CLR,0.00,VWS V15.00,2015-09-04 05:09:00,
2015-09-04 01:10:00,69.7,67.6,29.88,ESE,113,0.0,0.0,93,0.00,,CLR,0.00,VWS V15.00,2015-09-04 05:10:00,
2015-09-04 01:11:00,69.8,67.7,29.88,ESE,113,0.0,0.0,93,0.00,,CLR,0.00,VWS V15.00,2015-09-04 05:11:00,
2015-09-04 01:12:00,69.9,67.8,29.88,ESE,113,0.0,0.0,93,0.00,,CLR,0.00,VWS V15.00,2015-09-04 05:12:00,
2015-09-04 01:13:00,69.9,67.8,29.88,ESE,113,0.0,0.0,93,0.00,,CLR,0.00,VWS V15.00,2015-09-04 05:13:00,
2015-09-04 01:14:00,70.0,67.6,29.88,ESE,113,0.0,0.0,92,0.00,,CLR,0.00,VWS V15.00,2015-09-04 05:14:00,
2015-09-04 01:15:00,70.1,67.7,29.88,ESE,113,0.0,0.0,92,0.00,,CLR,0.00,VWS V15.00,2015-09-04 05:15:00,
2015-09-04 01:16:00,70.1,67.7,29.88,ESE,113,0.0,0.0,92,0.00,,CLR,0.00,VWS V15.00,2015-09-04 05:16:00,
2015-09-04 01:17:00,70.2,67.8,29.88,ESE,113,0.0,0.0,92,0.00,,CLR,0.00,VWS V15.00,2015-09-04 05:17:00,
2015-09-04 01:18:00,70.2,67.8,29.88,ESE,113,0.0,0.0,92,0.00,,CLR,0.00,VWS V15.00,2015-09-04 05:18:00,
2015-09-04 01:19:00,70.3,67.9,29.88,ESE,113,0.0,0.0,92,0.00,,CLR,0.00,VWS V15.00,2015-09-04 05:19:00,
2015-09-04 01:20:00,70.4,68.0,29.88,ESE,113,0.0,0.0,92,0.00,,CLR,0.00,VWS V15.00,2015-09-04 05:20:00,
2015-09-04 01:21:00,70.5,67.8,29.88,ESE,113,0.0,0.0,91,0.00,,CLR,0.00,VWS V15.00,2015-09-04 05:21:00,
2015-09-04 01:22:00,70.6,67.8,29.88,ESE,113,0.0,0.0,91,0.00,,CLR,0.00,VWS V15.00,2015-09-04 05:22:00,
2015-09-04 01:23:00,70.6,67.8,29.88,ESE,113,0.0,0.0,91,0.00,,CLR,0.00,VWS V15.00,2015-09-04 05:23:00,
2015-09-04 01:24:00,70.7,67.9,29.88,ESE,113,0.0,0.0,91,0.00,,CLR,0.00,VWS V15.00,2015-09-04 05:24:00,
2015-09-04 01:25:00,70.7,67.9,29.88,ESE,113,0.0,0.0,91,0.00,,CLR,0.00,VWS V15.00,2015-09-04 05:25:00,
2015-09-04 01:26:00,70.8,67.7,29.88,ESE,113,0.0,0.0,90,0.00,,CLR,0.00,VWS V15.00,2015-09-04 05:26:00,
2015-09-04 01:27:00,70.9,67.8,29.88,ESE,113,0.0,0.0,90,0.00,,CLR,0.00,VWS V15.00,2015-09-04 05:27:00,
2015-09-04 01:28:00,70.9,67.8,29.88,ESE,113,0.0,0.0,90,0.00,,CLR,0.00,VWS V15.00,2015-09-04 05:28:00,
2015-09-04 01:29:00,71.0,67.9,29.88,ESE,113,0.0,0.0,90,0.00,,CLR,0.00,VWS V15.00,2015-09-04 05:29:00,
2015-09-04 01:30:00,71.0,67.6,29.88,ESE,113,0.0,0.0,89,0.00,,CLR,0.00,VWS V15.00,2015-09-04 05:30:00,
2015-09-04 01:31:00,71.0,67.9,29.88,ESE,113,0.0,0.0,90,0.00,,CLR,0.00,VWS V15.00,2015-09-04 05:31:00,
2015-09-04 01:32:00,71.0,67.9,29.88,ESE,113,0.0,0.0,90,0.00,,CLR,0.00,VWS V15.00,2015-09-04 05:32:00,
2015-09-04 01:33:00,71.0,67.9,29.88,ESE,113,0.0,0.0,90,0.00,,CLR,0.00,VWS V15.00,2015-09-04 05:33:00,
2015-09-04 01:34:00,71.0,67.9,29.88,ESE,113,0.0,0.0,90,0.00,,CLR,0.00,VWS V15.00,2015-09-04 05:34:00,
2015-09-04 01:35:00,70.9,67.8,29.88,ESE,113,0.0,0.0,90,0.00,,CLR,0.00,VWS V15.00,2015-09-04 05:35:00,
2015-09-04 01:36:00,70.9,67.8,29.88,ESE,113,0.0,0.0,90,0.00,,CLR,0.00,VWS V15.00,2015-09-04 05:36:00,
2015-09-04 01:37:00,70.8,67.7,29.88,ESE,113,0.0,0.0,90,0.00,,CLR,0.00,VWS V15.00,2015-09-04 05:37:00,
2015-09-04 01:38:00,70.8,67.7,29.88,ESE,113,0.0,0.0,90,0.00,,CLR,0.00,VWS V15.00,2015-09-04 05:38:00,
2015-09-04 01:39:00,70.7,67.6,29.88,ESE,113,0.0,0.0,90,0.00,,CLR,0.00,VWS V15.00,2015-09-04 05:39:00,
2015-09-04 01:40:00,71.0,67.6,29.88,ESE,113,0.0,0.0,89,0.00,,CLR,0.00,VWS V15.00,2015-09-04 05:40:00,
2015-09-04 01:41:00,70.6,67.5,29.88,ESE,113,0.0,0.0,90,0.00,,CLR,0.00,VWS V15.00,2015-09-04 05:41:00,
2015-09-04 01:42:00,70.6,67.5,29.88,ESE,113,0.0,0.0,90,0.00,,CLR,0.00,VWS V15.00,2015-09-04 05:42:00,
2015-09-04 01:43:00,70.6,67.5,29.88,ESE,113,0.0,0.0,90,0.00,,CLR,0.00,VWS V15.00,2015-09-04 05:43:00,
2015-09-04 01:44:00,70.5,67.4,29.88,ESE,113,0.0,0.0,90,0.00,,CLR,0.00,VWS V15.00,2015-09-04 05:44:00,
2015-09-04 01:45:00,70.5,67.4,29.88,ESE,113,0.0,0.0,90,0.00,,CLR,0.00,VWS V15.00,2015-09-04 05:45:00,
2015-09-04 01:46:00,70.5,67.4,29.88,ESE,113,0.0,0.0,90,0.00,,CLR,0.00,VWS V15.00,2015-09-04 05:46:00,
2015-09-04 01:47:00,70.4,67.3,29.88,ESE,113,0.0,0.0,90,0.00,,CLR,0.00,VWS V15.00,2015-09-04 05:47:00,
2015-09-04 01:48:00,70.4,67.3,29.88,ESE,113,0.0,0.0,90,0.00,,CLR,0.00,VWS V15.00,2015-09-04 05:48:00,
2015-09-04 01:49:00,70.4,67.3,29.88,ESE,113,0.0,0.0,90,0.00,,CLR,0.00,VWS V15.00,2015-09-04 05:49:00,
2015-09-04 01:50:00,70.4,67.3,29.88,ESE,113,0.0,0.0,90,0.00,,CLR,0.00,VWS V15.00,2015-09-04 05:50:00,
2015-09-04 01:51:00,70.3,67.2,29.88,ESE,113,0.0,0.0,90,0.00,,CLR,0.00,VWS V15.00,2015-09-04 05:51:00,
2015-09-04 01:54:00,70.1,67.4,29.88,ESE,113,0.0,0.0,91,0.00,,CLR,0.00,VWS V15.00,2015-09-04 05:54:00,
2015-09-04 01:55:00,70.5,67.4,29.88,ESE,113,0.0,0.0,90,0.00,,CLR,0.00,VWS V15.00,2015-09-04 05:55:00,
2015-09-04 01:56:00,70.0,67.3,29.88,ESE,113,0.0,0.0,91,0.00,,CLR,0.00,VWS V15.00,2015-09-04 05:56:00,
2015-09-04 01:57:00,69.9,67.2,29.88,ESE,113,0.0,0.0,91,0.00,,CLR,0.00,VWS V15.00,2015-09-04 05:57:00,
2015-09-04 01:58:00,69.9,67.2,29.88,ESE,113,0.0,0.0,91,0.00,,CLR,0.00,VWS V15.00,2015-09-04 05:58:00,
2015-09-04 01:59:00,69.8,67.1,29.88,ESE,113,0.0,0.0,91,0.00,,CLR,0.00,VWS V15.00,2015-09-04 05:59:00,
2015-09-04 02:00:00,69.8,67.1,29.88,ESE,113,0.0,0.0,91,0.00,,CLR,0.00,VWS V15.00,2015-09-04 06:00:00,
2015-09-04 02:01:00,69.8,67.1,29.88,ESE,113,0.0,0.0,91,0.00,,CLR,0.00,VWS V15.00,2015-09-04 06:01:00,
2015-09-04 02:02:00,69.8,67.1,29.88,ESE,113,0.0,0.0,91,0.00,,CLR,0.00,VWS V15.00,2015-09-04 06:02:00,
2015-09-04 02:03:00,69.7,67.0,29.88,ESE,113,0.0,0.0,91,0.00,,CLR,0.00,VWS V15.00,2015-09-04 06:03:00,
2015-09-04 02:04:00,69.7,67.3,29.88,ESE,113,0.0,0.0,92,0.00,,CLR,0.00,VWS V15.00,2015-09-04 06:04:00,
2015-09-04 02:05:00,69.6,67.2,29.88,ESE,113,0.0,0.0,92,0.00,,CLR,0.00,VWS V15.00,2015-09-04 06:05:00,
2015-09-04 02:06:00,69.6,67.2,29.88,ESE,113,0.0,0.0,92,0.00,,CLR,0.00,VWS V15.00,2015-09-04 06:06:00,
2015-09-04 02:07:00,69.6,67.2,29.88,ESE,113,0.0,0.0,92,0.00,,CLR,0.00,VWS V15.00,2015-09-04 06:07:00,
2015-09-04 02:08:00,69.5,67.1,29.88,ESE,113,0.0,0.0,92,0.00,,CLR,0.00,VWS V15.00,2015-09-04 06:08:00,
2015-09-04 02:09:00,69.5,67.1,29.88,ESE,113,0.0,0.0,92,0.00,,CLR,0.00,VWS V15.00,2015-09-04 06:09:00,
2015-09-04 02:10:00,69.5,67.1,29.88,ESE,113,0.0,0.0,92,0.00,,CLR,0.00,VWS V15.00,2015-09-04 06:10:00,
2015-09-04 02:11:00,69.4,67.0,29.88,ESE,113,0.0,0.0,92,0.00,,CLR,0.00,VWS V15.00,2015-09-04 06:11:00,
2015-09-04 02:12:00,69.4,67.0,29.88,ESE,113,0.0,0.0,92,0.00,,CLR,0.00,VWS V15.00,2015-09-04 06:12:00,
2015-09-04 02:13:00,69.3,66.9,29.88,ESE,113,0.0,0.0,92,0.00,,CLR,0.00,VWS V15.00,2015-09-04 06:13:00,
2015-09-04 02:14:00,69.3,66.9,29.88,ESE,113,0.0,0.0,92,0.00,,CLR,0.00,VWS V15.00,2015-09-04 06:14:00,
2015-09-04 02:15:00,69.2,66.8,29.88,ESE,113,0.0,0.0,92,0.00,,CLR,0.00,VWS V15.00,2015-09-04 06:15:00,
2015-09-04 02:16:00,69.2,66.8,29.88,ESE,113,0.0,0.0,92,0.00,,CLR,0.00,VWS V15.00,2015-09-04 06:16:00,
2015-09-04 02:17:00,69.2,67.1,29.88,ESE,113,0.0,0.0,93,0.00,,CLR,0.00,VWS V15.00,2015-09-04 06:17:00,
2015-09-04 02:18:00,69.2,66.8,29.88,ESE,113,0.0,0.0,92,0.00,,CLR,0.00,VWS V15.00,2015-09-04 06:18:00,
2015-09-04 02:19:00,69.1,67.0,29.88,ESE,113,0.0,0.0,93,0.00,,CLR,0.00,VWS V15.00,2015-09-04 06:19:00,
2015-09-04 02:20:00,69.1,67.0,29.88,ESE,113,0.0,0.0,93,0.00,,CLR,0.00,VWS V15.00,2015-09-04 06:20:00,
2015-09-04 02:21:00,69.1,67.0,29.88,ESE,113,0.0,0.0,93,0.00,,CLR,0.00,VWS V15.00,2015-09-04 06:21:00,
2015-09-04 02:22:00,69.1,67.0,29.88,ESE,113,0.0,0.0,93,0.00,,CLR,0.00,VWS V15.00,2015-09-04 06:22:00,
2015-09-04 02:23:00,69.1,67.0,29.88,ESE,113,0.0,0.0,93,0.00,,CLR,0.00,VWS V15.00,2015-09-04 06:23:00,
2015-09-04 02:24:00,69.1,67.0,29.88,ESE,113,0.0,0.0,93,0.00,,CLR,0.00,VWS V15.00,2015-09-04 06:24:00,
2015-09-04 02:25:00,69.1,67.0,29.88,ESE,113,0.0,0.0,93,0.00,,CLR,0.00,VWS V15.00,2015-09-04 06:25:00,
2015-09-04 02:26:00,69.0,66.9,29.88,ESE,113,0.0,0.0,93,0.00,,CLR,0.00,VWS V15.00,2015-09-04 06:26:00,
2015-09-04 02:27:00,69.0,66.9,29.88,ESE,113,0.0,0.0,93,0.00,,CLR,0.00,VWS V15.00,2015-09-04 06:27:00,
2015-09-04 02:28:00,69.0,66.9,29.88,ESE,113,0.0,0.0,93,0.00,,CLR,0.00,VWS V15.00,2015-09-04 06:28:00,
2015-09-04 02:29:00,68.9,66.8,29.88,ESE,113,0.0,0.0,93,0.00,,CLR,0.00,VWS V15.00,2015-09-04 06:29:00,
2015-09-04 02:30:00,68.9,66.8,29.88,ESE,113,0.0,0.0,93,0.00,,CLR,0.00,VWS V15.00,2015-09-04 06:30:00,
2015-09-04 02:31:00,68.9,66.8,29.88,ESE,113,0.0,0.0,93,0.00,,CLR,0.00,VWS V15.00,2015-09-04 06:31:00,
2015-09-04 02:32:00,68.8,66.7,29.88,ESE,113,0.0,0.0,93,0.00,,CLR,0.00,VWS V15.00,2015-09-04 06:32:00,
2015-09-04 02:33:00,68.8,66.7,29.88,ESE,113,0.0,0.0,93,0.00,,CLR,0.00,VWS V15.00,2015-09-04 06:33:00,
2015-09-04 02:34:00,68.8,66.7,29.88,ESE,113,0.0,0.0,93,0.00,,CLR,0.00,VWS V15.00,2015-09-04 06:34:00,
2015-09-04 02:35:00,68.7,66.6,29.88,ESE,113,0.0,0.0,93,0.00,,CLR,0.00,VWS V15.00,2015-09-04 06:35:00,
2015-09-04 02:36:00,68.7,66.6,29.88,ESE,113,0.0,0.0,93,0.00,,CLR,0.00,VWS V15.00,2015-09-04 06:36:00,
2015-09-04 02:37:00,68.7,66.6,29.88,ESE,113,0.0,0.0,93,0.00,,CLR,0.00,VWS V15.00,2015-09-04 06:37:00,
2015-09-04 02:38:00,68.6,66.5,29.88,ESE,113,0.0,0.0,93,0.00,,CLR,0.00,VWS V15.00,2015-09-04 06:38:00,
2015-09-04 02:39:00,68.6,66.5,29.88,ESE,113,0.0,0.0,93,0.00,,CLR,0.00,VWS V15.00,2015-09-04 06:39:00,
2015-09-04 02:40:00,68.5,66.4,29.88,ESE,113,0.0,0.0,93,0.00,,CLR,0.00,VWS V15.00,2015-09-04 06:40:00,
2015-09-04 02:41:00,68.4,66.3,29.88,ESE,113,0.0,0.0,93,0.00,,CLR,0.00,VWS V15.00,2015-09-04 06:41:00,
2015-09-04 02:42:00,68.4,66.3,29.88,ESE,113,0.0,0.0,93,0.00,,CLR,0.00,VWS V15.00,2015-09-04 06:42:00,
2015-09-04 02:43:00,68.5,66.7,29.88,ESE,113,0.0,0.0,94,0.00,,CLR,0.00,VWS V15.00,2015-09-04 06:43:00,
2015-09-04 02:44:00,68.5,66.7,29.88,ESE,113,0.0,0.0,94,0.00,,CLR,0.00,VWS V15.00,2015-09-04 06:44:00,
2015-09-04 02:45:00,68.5,66.7,29.88,ESE,113,0.0,0.0,94,0.00,,CLR,0.00,VWS V15.00,2015-09-04 06:45:00,
2015-09-04 02:46:00,68.5,66.7,29.88,ESE,113,0.0,0.0,94,0.00,,CLR,0.00,VWS V15.00,2015-09-04 06:46:00,
2015-09-04 02:47:00,68.5,66.7,29.88,ESE,113,0.0,0.0,94,0.00,,CLR,0.00,VWS V15.00,2015-09-04 06:47:00,
2015-09-04 02:48:00,68.5,66.7,29.88,ESE,113,0.0,0.0,94,0.00,,CLR,0.00,VWS V15.00,2015-09-04 06:48:00,
2015-09-04 02:49:00,68.6,66.8,29.88,ESE,113,0.0,0.0,94,0.00,,CLR,0.00,VWS V15.00,2015-09-04 06:49:00,
2015-09-04 02:50:00,68.6,66.8,29.88,ESE,113,0.0,0.0,94,0.00,,CLR,0.00,VWS V15.00,2015-09-04 06:50:00,
2015-09-04 02:51:00,68.7,66.9,29.88,ESE,111,0.0,0.0,94,0.00,,CLR,0.00,VWS V15.00,2015-09-04 06:51:00,
2015-09-04 02:52:00,68.7,66.9,29.88,ESE,111,0.0,0.0,94,0.00,,CLR,0.00,VWS V15.00,2015-09-04 06:52:00,
2015-09-04 02:53:00,68.8,67.0,29.88,ESE,112,0.0,0.0,94,0.00,,CLR,0.00,VWS V15.00,2015-09-04 06:53:00,
2015-09-04 02:54:00,68.8,67.0,29.88,ESE,112,0.0,0.0,94,0.00,,CLR,0.00,VWS V15.00,2015-09-04 06:54:00,
2015-09-04 02:55:00,68.8,67.0,29.88,ESE,111,0.0,0.0,94,0.00,,CLR,0.00,VWS V15.00,2015-09-04 06:55:00,
2015-09-04 02:56:00,68.9,67.1,29.88,ESE,111,0.0,0.0,94,0.00,,CLR,0.00,VWS V15.00,2015-09-04 06:56:00,
2015-09-04 02:57:00,68.9,67.1,29.88,ESE,112,0.0,0.0,94,0.00,,CLR,0.00,VWS V15.00,2015-09-04 06:57:00,
2015-09-04 02:58:00,68.9,67.1,29.88,ESE,111,0.0,0.0,94,0.00,,CLR,0.00,VWS V15.00,2015-09-04 06:58:00,
2015-09-04 02:59:00,68.9,67.1,29.88,ESE,112,0.0,0.0,94,0.00,,CLR,0.00,VWS V15.00,2015-09-04 06:59:00,
2015-09-04 03:00:00,68.9,67.1,29.88,ESE,112,0.0,0.0,94,0.00,,CLR,0.00,VWS V15.00,2015-09-04 07:00:00,
2015-09-04 03:01:00,68.9,66.8,29.88,ESE,111,0.0,0.0,93,0.00,,CLR,0.00,VWS V15.00,2015-09-04 07:01:00,
2015-09-04 03:02:00,68.9,67.1,29.88,ESE,111,0.0,0.0,94,0.00,,CLR,0.00,VWS V15.00,2015-09-04 07:02:00,
2015-09-04 03:03:00,68.9,66.8,29.88,ESE,111,0.0,0.0,93,0.00,,CLR,0.00,VWS V15.00,2015-09-04 07:03:00,
2015-09-04 03:04:00,68.9,66.8,29.88,ESE,111,0.0,0.0,93,0.00,,CLR,0.00,VWS V15.00,2015-09-04 07:04:00,
2015-09-04 03:05:00,68.9,66.8,29.88,ESE,111,0.0,0.0,93,0.00,,CLR,0.00,VWS V15.00,2015-09-04 07:05:00,
2015-09-04 03:06:00,68.9,66.8,29.88,ESE,111,0.0,0.0,93,0.00,,CLR,0.00,VWS V15.00,2015-09-04 07:06:00,
2015-09-04 03:07:00,69.0,66.9,29.88,ESE,111,0.0,0.0,93,0.00,,CLR,0.00,VWS V15.00,2015-09-04 07:07:00,
2015-09-04 03:08:00,69.0,67.2,29.88,ESE,112,0.0,0.0,94,0.00,,CLR,0.00,VWS V15.00,2015-09-04 07:08:00,
2015-09-04 03:09:00,69.2,67.4,29.88,ESE,112,0.0,0.0,94,0.00,,CLR,0.00,VWS V15.00,2015-09-04 07:09:00,
2015-09-04 03:10:00,69.2,67.4,29.88,ESE,111,0.0,0.0,94,0.00,,CLR,0.00,VWS V15.00,2015-09-04 07:10:00,
2015-09-04 03:11:00,69.4,67.6,29.88,ESE,112,0.0,0.0,94,0.00,,CLR,0.00,VWS V15.00,2015-09-04 07:11:00,
2015-09-04 03:12:00,69.5,67.7,29.88,ESE,111,0.0,0.0,94,0.00,,CLR,0.00,VWS V15.00,2015-09-04 07:12:00,
2015-09-04 03:13:00,69.6,67.5,29.88,ESE,111,0.0,0.0,93,0.00,,CLR,0.00,VWS V15.00,2015-09-04 07:13:00,
2015-09-04 03:14:00,69.6,67.5,29.88,ESE,112,0.0,0.0,93,0.00,,CLR,0.00,VWS V15.00,2015-09-04 07:14:00,
2015-09-04 03:15:00,69.7,67.6,29.88,ESE,112,0.0,0.0,93,0.00,,CLR,0.00,VWS V15.00,2015-09-04 07:15:00,
2015-09-04 03:16:00,69.7,67.3,29.88,ESE,111,0.0,0.0,92,0.00,,CLR,0.00,VWS V15.00,2015-09-04 07:16:00,
2015-09-04 03:17:00,69.7,67.3,29.88,ESE,111,0.0,0.0,92,0.00,,CLR,0.00,VWS V15.00,2015-09-04 07:17:00,
2015-09-04 03:18:00,69.7,67.3,29.88,ESE,111,0.0,0.0,92,0.00,,CLR,0.00,VWS V15.00,2015-09-04 07:18:00,
2015-09-04 03:19:00,69.6,67.2,29.89,ESE,111,0.0,0.0,92,0.00,,CLR,0.00,VWS V15.00,2015-09-04 07:19:00,
2015-09-04 03:20:00,69.6,67.2,29.89,ESE,111,0.0,0.0,92,0.00,,CLR,0.00,VWS V15.00,2015-09-04 07:20:00,
2015-09-04 03:21:00,69.5,66.8,29.88,ESE,112,0.0,0.0,91,0.00,,CLR,0.00,VWS V15.00,2015-09-04 07:21:00,
2015-09-04 03:22:00,69.5,66.8,29.89,ESE,111,0.0,0.0,91,0.00,,CLR,0.00,VWS V15.00,2015-09-04 07:22:00,
2015-09-04 03:23:00,69.4,66.7,29.88,ESE,111,0.0,0.0,91,0.00,,CLR,0.00,VWS V15.00,2015-09-04 07:23:00,
2015-09-04 03:24:00,69.3,66.6,29.88,ESE,111,0.0,0.0,91,0.00,,CLR,0.00,VWS V15.00,2015-09-04 07:24:00,